Accueil
METAR-TAF:

METAR-TAF

Aéroports :

Bennettsville, Caroline du Sud, États-Unis

latitude: 34-37-18N, longitude: 079-44-04W, altitude: 45 m

Observation

Le bulletin a été fait il y a 15 minutes, à 21:55 UTC
Vent 14 kt de ouest/sud-ouest avec des rafales jusqu'à 20 kt
Température 12°C
Humidité 38%
Pression 1015 hPa
Visibilité: 16.1 km
Nuages fragmentés à une hauteur de 8000 ft
Nuages fragmentés à une hauteur de 9000 ft

METAR: KBBP 282155Z AUTO 25014G20KT 10SM BKN080 BKN090 12/M02 A2998 RMK AO2

Heure: 17:10 (22:10 UTC)


TAF: absent

Observations et prévisions météorologiques de plus de 4000 aéroports (messages METAR et TAF).

Les stations disponibles sont représentées par des disques jaunes et rouges sur la carte.

Passer la souris dessus pour voir le nom de la station.

Cliquer dessus pour voir les observations et prévisions météorologiques.

Pour changer de carte: cliquez sur les boutons verts avec une croix noire pour zoomer, sur le bouton vert avec un tiret pour effectuer un zoom arrière, ou sur les flèches vertes pour les cartes adjacentes.


METAR-TAF: